DMSP 5D-2 F13 DEB, 42281

Orbit data source: Space-Track

DMSP 5D-2 F13 DEB, 42281 is space debris in SSO originally from a launch on Fri, 24 Mar 1995 UTC launched from the Air Force Western Test Range (AFWTR). Debris objects in space refer to the collection of defunct objects orbiting the Earth. Examples of debris include non-operational satellites, rocket bodies, and fragments generated from explosions, collisions, or faulty payload assembly.

Loading next visibility...
DMSP 5D-2 F13 DEB details
Identifier
42281, 1995-015GX
Orbit
SSO
Last TLE update1 day ago
Origin
Flag of USUSAF SMC (US)
ManufacturerUnknown
MissionSpacecraft
Bus & MotorUnknown
MassUnknown
Launch date (UTC)
1995-03-24 (30 years ago)
Launch vehicleUnknown
Launch site
Air Force Western Test Range (AFWTR)
Object type
Payload
Rocket body
Debris
Shape & HBRUnknown
Radar Cross SectionSmall (<0.1 m²)

Expand to show TLE details & history

TLE from 1 day ago
0 DMSP 5D-2 F13 DEB
1 42281U 95015GX  24340.33966827  .00019880  00000-0  52877-2 0  9991
2 42281  98.5801  22.4537 0032753 315.7768  44.0808 14.48245597502460
Epoch: 2024-12-05T08:09Z
Definitive object data (Epoch: 2024-12-05T08:09:07.338Z)
Latitude0.00003°
Longitude-174.44876°
Altitude717.648 km
Speed7.505 km/s
True Right ascension01h 29m 48s
True Declination0° 00' 00"
Sunlit
Object was in full shadow at TLE epoch
Visualization TLE readout
Latitude11.32445°
Longitude8.42851°
Altitude752.203 km
Speed7.469 km/s
Apparent Right ascension16h 31m 21s
Apparent Declination-22° 33' 31"
Sunlit
Object is in daylight
Visualization observer readout
Local Sidereal Time09:30:04
Azimuth98.787° ESE
Elevation-25.676°
Doppler factor1
Orbital elements
Apogee altitude751.775 km
Perigee altitude705.223 km
Semi-major axis7,106.636 km
Eccentricity0.0032753
Inclination98.5801°
RAAN22.4537°
Arg. of periapsis315.7768°
True anomaly44.34267°
Mean anomaly44.0808°
Eccentric anomaly44.21166°
Mean motion3.62282 °/min
BSTAR0.0052877
Orbital period99.37 mins
Loading maneuver chart data...

DMSP 5D-2 F13 DEB Visibility forecast

Observer location: undefined°, undefined

Span
Click to sort rows by Start time (UTC) header in descending order
Start Az.
Max El. time (UTC)
Max El. Az.
Max El.
End time (UTC)
End Az.
5 mins2024-12-06 14:36:34.659Z60.357° ENE2024-12-06 14:39:34.659Z97.867° ESE13.764°2024-12-06 14:41:34.659Z122.02° SE
8 mins2024-12-06 16:14:34.659Z1.215° NNE2024-12-06 16:17:34.659Z297.639° NW41.374°2024-12-06 16:22:34.659Z207.384° SW
4 mins2024-12-07 01:47:34.659Z81.283° E2024-12-07 01:48:34.659Z66.284° ENE16.917°2024-12-07 01:51:34.659Z25.938° NE
7 mins2024-12-07 03:23:34.659Z190.773° SSW2024-12-07 03:26:34.659Z258.148° W38.275°2024-12-07 03:30:34.659Z333.467° NNW
|